"Pseudo-MPEC" for loK0937

Created 2020 Sep 19 1:07:57 UT using Find_Orb

Click here for an explanation of pseudo-MPECs

 
 Astrometry: 
     loK0937 KC2020 09 14.12541806 07 27.66 +23 00 25.2    ~9G4b 19.4 GVNEOCPI93
     loK0937 KC2020 09 14.14070006 07 31.51 +23 00 30.8    ~9G4b 20.6 GVNEOCPI93
     loK0937 KC2020 09 14.15597906 07 35.43 +23 00 36.9    ~9G4b 19.8 GVNEOCPI93
     loK0937 KC2020 09 16.09189006 15 52.66 +23 10 39.5    ~9G4b 19.5 GVNEOCPI93
     loK0937 KC2020 09 16.10527606 15 56.10 +23 10 44.5    ~9G4b 19.9 GVNEOCPI93
     loK0937 KC2020 09 16.11918606 15 59.70 +23 10 48.0    ~9G4b 20.2 GVNEOCPI93
     loK0937 KC2020 09 16.13519806 16 03.75 +23 10 53.1    ~9G4b 20.2 GVNEOCPI93
     loK0937 KC2020 09 16.14743006 16 06.84 +23 10 56.5    ~9G4b 20.7 GVNEOCPI93
     loK0937 KC2020 09 16.15982706 16 10.01 +23 11 00.2    ~9G4b 20.3 GVNEOCPI93
     loK0937 KC2020 09 1637SG,@cYZHlP`=9dEwVWkwXCS4mBG^Ooko2$)4p3u4'9Y$WOXhaJ711
     loK0937 KC2020 09 16e?m-a:Uyi$j8jHB$?/SS6GfAstrometry:$oslVw2Pj*]+El+4JO711
     loK0937 KC2020 09 16'nx#M=2JIMj=,_jRpgXI7=H^6bR=W*@*!Sd%VlosR.d^X+#2=J[(711
     loK0937 KC2020 09 17.10283006 20 12.05 +23 15 20.4    ~9H4b 20.4 GVNEOCPI93
     loK0937 KC2020 09 17.12720806 20 18.28 +23 15 27.6    ~9H4b 20.7 GVNEOCPI93
     loK0937 KC2020 09 17.15570806 20 25.51 +23 15 35.2    ~9H4b 20.2 GVNEOCPI93
     loK0937 KC2020 09 17.7JC6'M0redacted;eclick(=*-sPG\ee@CpwV4#ZI+B`$l*nN1$711
     loK0937 KC2020 09 179:BwGoM$/i[*herefR'v@_0iDR)HE3psEuf9qd`fk)Ua_NJf$jK5711
     loK0937 pC2020 09 183Jgqrf*C9)Zv5x7!iU^x=W]E'$#r)8_SZV;I:xAtuVL21;AJn8'+L01
     loK0937 KC2020 09 187./;ZmS@gPhE)(D$VsZ(_FwJEsQQ09:Kt-Yn.Fxh4DLphP;ebe`ZL01
     loK0937 KC2020 09 185_S@6YQi-^UF#.i7R;btEh5d+iOEId*W^AurrdY0AiWDw[)ow#:@L01
     loK0937 pC2020 09 18l%K5.p^M;1A6)mU=$v,5@)5Uf^-ixM5WRJfHbm$$xnbEI%Iy18?nL01
     loK0937 KC2020 09 18'OZe\#/lOapocXb?6g=+)c..f.sY'A`V!lXx!JM@CYR_yipN/36qH36
     loK0937 KC2020 09 18xDYZes6@y]xw^%UBhOaArh8FQ%6I%5m8o3f_S?BRq[TvjQxX9Tx'H36
     loK0937 KC2020 09 18lx3q4for\Q#)CLc2p).CVP3a(FgA?#Fq6explanationq`Lc/6LcH36

Station data:
(711) McDonald Observatory, Fort Davis  (N30.671481 W104.021500)  US/Texas.
   0.76-m f/3.0 reflector.
(H36) Sandlot Observatory, Scranton  (N38.797693 W95.706400)  US/Kansas.
   Observer G. Hug. 0.56-m reflector + CCD.
(I93) St Pardon de Conques  (N44.558710 W0.203000)  France.  Observer F.
   Losse. 0.40-m f/3.7 reflector + CCD.
(L01) Višnjan Observatory, Tičan  (N45.290900 E13.749300)  Croatia.
   Observers K. Korlević, E. Pettarin. Measurer E. Pettarin. 1.0-m f/2.9
   reflector + CCD.

Orbital elements:  loK0937
   Perihelion 2020 Oct 7.066239 +/- 0.3 TT =  1:35:23 (JD 2459129.566239)
Epoch 2020 Sep 18.0 TT = JDT 2459110.5   Earth MOID: 0.1896   Ma: 0.0477
M 353.14269175 +/- 1.2              (J2000 ecliptic)          AutoNEOCP
n   0.35965709 +/- 0.0628           Peri.   17.23571 +/- 0.31
a   1.95828978 +/- 0.228            Node    39.49791 +/- 1.4
e   0.3990845 +/- 0.0615            Incl.    4.96473 +/- 0.15
P   2.74                   H 18.6   G  0.15   U 10.9  
q 1.17676654 +/- 0.0192    Q 2.73981301 +/- 0.509
From 24 observations 2020 Sept. 14-18; mean residual 0".44
Residuals in arcseconds: 
200914 I93  .24+  .40-    200916 I93  .28+  .16-    200917 711  .25+  .31-    
200914 I93  .36-  .14-    200916 711  .46+  .59-    200918 L01  .24-  .26-    
200914 I93  .07+  .65+    200916 711  .24+  .02+    200918 L01  .47-  .06-    
200916 I93  .37-  .26-    200916 711  1.6-  .63+    200918 L01  .07+  .26-    
200916 I93  .04-  .65+    200917 I93  .03+  .23-    200918 L01  .44-  .15+    
200916 I93  .71+  .08-    200917 I93  .34+  .12+    200918 H36  1.2+  .24+    
200916 I93  .33+  .16+    200917 I93  .14+  .22-    200918 H36  .32+  .15+    
200916 I93  .03+  .13-    200917 711  .03+  .09-    200918 H36  .90-  .30+    

Ephemerides (geocentric):
Date (UTC) HH   RA              Dec         delta   r     elong  mag " sig PA
---- -- -- --  -------------   -----------  ------ ------ -----  --- ---- ---
2020 09 19 01  06 28 28.241   +23 23 17.20  .84214 1.1905  79.7 20.7 .281 118
2020 09 19 02  06 28 38.900   +23 23 26.36  .84204 1.1904  79.7 20.7 .300 119
2020 09 19 03  06 28 49.559   +23 23 35.49  .84194 1.1904  79.7 20.7 .320 120
2020 09 19 04  06 29 00.218   +23 23 44.57  .84184 1.1903  79.7 20.7 .340 120
2020 09 19 05  06 29 10.875   +23 23 53.61  .84174 1.1902  79.7 20.7 .360 121
2020 09 19 06  06 29 21.532   +23 24 02.61  .84164 1.1902  79.7 20.7 .381 121
2020 09 19 07  06 29 32.189   +23 24 11.57  .84154 1.1901  79.7 20.7 .402 122
2020 09 19 08  06 29 42.844   +23 24 20.49  .84144 1.1900  79.7 20.7 .424 122
2020 09 19 09  06 29 53.499   +23 24 29.37  .84134 1.1900  79.7 20.7 .446 122
2020 09 19 10  06 30 04.153   +23 24 38.20  .84124 1.1899  79.7 20.7 .468 123
2020 09 19 11  06 30 14.807   +23 24 47.00  .84114 1.1899  79.7 20.7 .491 123
2020 09 19 12  06 30 25.459   +23 24 55.76  .84104 1.1898  79.7 20.7 .514 123
2020 09 19 13  06 30 36.112   +23 25 04.48  .84094 1.1897  79.7 20.7 .538 123
2020 09 19 14  06 30 46.763   +23 25 13.15  .84085 1.1897  79.7 20.7 .562 123
2020 09 19 15  06 30 57.413   +23 25 21.79  .84075 1.1896  79.7 20.7 .587 124
2020 09 19 16  06 31 08.063   +23 25 30.38  .84065 1.1896  79.8 20.7 .612 124
2020 09 19 17  06 31 18.713   +23 25 38.94  .84055 1.1895  79.8 20.7 .637 124
2020 09 19 18  06 31 29.361   +23 25 47.45  .84045 1.1894  79.8 20.7 .663 124
2020 09 19 19  06 31 40.009   +23 25 55.92  .84036 1.1894  79.8 20.7 .690 124
2020 09 19 20  06 31 50.655   +23 26 04.36  .84026 1.1893  79.8 20.7 .716 124
2020 09 19 21  06 32 01.302   +23 26 12.75  .84016 1.1893  79.8 20.7 .744 124
2020 09 19 22  06 32 11.947   +23 26 21.10  .84006 1.1892  79.8 20.7 .771 124
2020 09 19 23  06 32 22.592   +23 26 29.41  .83997 1.1891  79.8 20.7 .800 124
2020 09 20 00  06 32 33.236   +23 26 37.69  .83987 1.1891  79.8 20.7 .828 124
2020 09 20 01  06 32 43.879   +23 26 45.92  .83977 1.1890  79.8 20.7 .857 124
2020 09 20 02  06 32 54.521   +23 26 54.11  .83967 1.1890  79.8 20.7 .887 124
2020 09 20 03  06 33 05.162   +23 27 02.26  .83958 1.1889  79.8 20.7 .917 124
2020 09 20 04  06 33 15.803   +23 27 10.37  .83948 1.1888  79.8 20.7 .947 124
2020 09 20 05  06 33 26.443   +23 27 18.44  .83938 1.1888  79.8 20.7 .978 124
2020 09 20 06  06 33 37.082   +23 27 26.47  .83929 1.1887  79.8 20.7 1.01 124
2020 09 20 07  06 33 47.721   +23 27 34.45  .83919 1.1887  79.8 20.7 1.04 124
2020 09 20 08  06 33 58.358   +23 27 42.40  .83910 1.1886  79.8 20.7 1.07 124
2020 09 20 09  06 34 08.995   +23 27 50.31  .83900 1.1885  79.8 20.7 1.11 124
2020 09 20 10  06 34 19.631   +23 27 58.18  .83890 1.1885  79.8 20.7 1.14 124
2020 09 20 11  06 34 30.266   +23 28 06.00  .83881 1.1884  79.8 20.7 1.17 124
2020 09 20 12  06 34 40.900   +23 28 13.79  .83871 1.1884  79.8 20.7 1.21 124
2020 09 20 13  06 34 51.534   +23 28 21.54  .83862 1.1883  79.8 20.7 1.24 124
2020 09 20 14  06 35 02.166   +23 28 29.24  .83852 1.1883  79.8 20.7 1.28 124
2020 09 20 15  06 35 12.798   +23 28 36.91  .83843 1.1882  79.8 20.7 1.32 124
2020 09 20 16  06 35 23.429   +23 28 44.54  .83833 1.1881  79.8 20.7 1.35 124
2020 09 20 17  06 35 34.059   +23 28 52.12  .83824 1.1881  79.8 20.7 1.39 124
2020 09 20 18  06 35 44.688   +23 28 59.67  .83814 1.1880  79.8 20.7 1.43 124
2020 09 20 19  06 35 55.317   +23 29 07.17  .83805 1.1880  79.8 20.7 1.46 124
2020 09 20 20  06 36 05.944   +23 29 14.63  .83795 1.1879  79.8 20.7 1.50 124
2020 09 20 21  06 36 16.571   +23 29 22.06  .83786 1.1879  79.8 20.7 1.54 124
2020 09 20 22  06 36 27.197   +23 29 29.44  .83777 1.1878  79.8 20.7 1.58 124
2020 09 20 23  06 36 37.822   +23 29 36.79  .83767 1.1877  79.8 20.7 1.62 124
2020 09 21 00  06 36 48.446   +23 29 44.09  .83758 1.1877  79.8 20.7 1.66 124